Location: Lipsett
(52.7836°N, 104.6863°W)
Time: 23:52:52
(UTC+00:00)

X-37B - Pass Details

Date: 24 August 2022
Orbit: 330 x 340 km, 45.0° (Epoch: 02 September)

Event Time Altitude Azimuth Distance (km) Brightness Sun altitude
Rises 03:58:14 0° 239° (WSW) 2,097 4.5 -15.1°
Reaches altitude 10° 04:00:39 10° 217° (SW) 1,264 3.1 -15.4°
Enters shadow 04:01:12 13° 208° (SSW) 1,124 2.7 -15.4°
